| time (UTC) | temp C | wind direction | speed KPH | gust KPH | rain 1hr cm | rain 24hr cm | rain mn cm | humidity % | barometer mb |
| 20260505100922 | 10 | 134 | 1.6 | 1.6 | 0.00 | 0.58 | 0.58 | 93 | 1008.5 |
| 20260505100420 | 10 | 217 | 4.8 | 4.8 | 0.18 | 0.58 | 0.58 | 93 | 1008.6 |
| 20260505095915 | 10 | 18 | 4.8 | 8.0 | 0.30 | 0.58 | 0.58 | 93 | 1008.8 |
| 20260505095413 | 11 | 49 | 4.8 | 4.8 | 0.30 | 0.56 | 0.56 | 92 | 1009.6 |
| 20260505094908 | 11 | 188 | 4.8 | 8.0 | 0.48 | 0.53 | 0.53 | 92 | 1010.8 |
| 20260505094406 | 11 | 217 | 3.2 | 3.2 | 0.61 | 0.51 | 0.51 | 92 | 1010.6 |
| 20260505093901 | 11 | 295 | 4.8 | 4.8 | 0.61 | 0.46 | 0.46 | 92 | 1010.0 |
| 20260505093359 | 11 | 350 | 8.0 | 9.7 | 0.89 | 0.41 | 0.41 | 91 | 1009.7 |
| 20260505092856 | 11 | 311 | 8.0 | 9.7 | 1.19 | 0.33 | 0.33 | 90 | 1009.9 |
| 20260505092354 | 11 | 351 | 16.1 | 22.5 | 1.07 | 0.23 | 0.23 | 87 | 1009.5 |
| 20260505091851 | 12 | 327 | 12.9 | 24.1 | 0.61 | 0.10 | 0.10 | 85 | 1009.2 |
| 20260505091349 | 13 | 302 | 8.0 | 11.3 | 0.18 | 0.03 | 0.03 | 82 | 1008.9 |
| 20260505090847 | 15 | 1 | 14.5 | 17.7 | 0.00 | 0.00 | 0.00 | 75 | 1008.0 |
| 20260505090345 | 16 | 321 | 4.8 | 9.7 | 0.00 | 0.00 | 0.00 | 68 | 1007.5 |
| 20260505085841 | 16 | 338 | 14.5 | 17.7 | 0.00 | 0.00 | 0.00 | 66 | 1006.8 |
| 20260505085339 | 17 | 6 | 12.9 | 17.7 | 0.00 | 0.00 | 0.00 | 64 | 1006.6 |
| 20260505084837 | 18 | 4 | 29.0 | 35.4 | 0.00 | 0.00 | 0.00 | 65 | 1006.1 |
| 20260505084335 | 20 | 311 | 8.0 | 9.7 | 0.00 | 0.00 | 0.00 | 70 | 1005.5 |
| 20260505083832 | 20 | 334 | 4.8 | 4.8 | 0.00 | 0.00 | 0.00 | 69 | 1005.5 |
| 20260505083330 | 19 | 9 | 6.4 | 8.0 | 0.00 | 0.00 | 0.00 | 71 | 1005.2 |
| 20260505082826 | 18 | 7 | 6.4 | 8.0 | 0.00 | 0.00 | 0.00 | 74 | 1005.0 |
| 20260505082322 | 19 | 68 | 1.6 | 3.2 | 0.00 | 0.00 | 0.00 | 74 | 1004.7 |
| 20260505081819 | 19 | 139 | 1.6 | 1.6 | 0.00 | 0.00 | 0.00 | 73 | 1004.5 |
| 20260505081316 | 20 | 176 | 0.0 | 0.0 | 0.00 | 0.00 | 0.00 | 71 | 1004.5 |
| 20260505080812 | 20 | 205 | 0.0 | 0.0 | 0.00 | 0.00 | 0.00 | 71 | 1004.5 |
| 20260505080309 | 20 | 201 | 1.6 | 1.6 | 0.00 | 0.00 | 0.00 | 69 | 1004.3 |
| 20260505075804 | 20 | 197 | 3.2 | 3.2 | 0.00 | 0.00 | 0.00 | 70 | 1004.6 |
| 20260505075304 | 20 | 182 | 0.0 | 1.6 | 0.00 | 0.00 | 0.00 | 69 | 1004.3 |
| 20260505074758 | 20 | 180 | 0.0 | 0.0 | 0.00 | 0.00 | 0.00 | 70 | 1004.2 |
| 20260505074256 | 20 | 214 | 1.6 | 3.2 | 0.00 | 0.00 | 0.00 | 69 | 1004.2 |
| 20260505073753 | 20 | 185 | 3.2 | 3.2 | 0.00 | 0.00 | 0.00 | 71 | 1004.5 |
| 20260505073251 | 20 | 168 | 1.6 | 3.2 | 0.00 | 0.00 | 0.00 | 71 | 1004.5 |
| 20260505072747 | 20 | 189 | 3.2 | 3.2 | 0.00 | 0.00 | 0.00 | 69 | 1004.7 |
| 20260505072244 | 20 | 178 | 3.2 | 3.2 | 0.00 | 0.00 | 0.00 | 70 | 1004.7 |
| 20260505071739 | 20 | 186 | 3.2 | 3.2 | 0.00 | 0.00 | 0.00 | 71 | 1004.8 |
| 20260505071236 | 19 | 195 | 1.6 | 1.6 | 0.00 | 0.00 | 0.00 | 73 | 1005.0 |
| 20260505070734 | 19 | 178 | 0.0 | 0.0 | 0.00 | 0.00 | 0.00 | 75 | 1004.9 |
| 20260505070230 | 19 | 187 | 0.0 | 0.0 | 0.00 | 0.00 | 0.00 | 73 | 1005.1 |
| 20260505065726 | 19 | 190 | 0.0 | 0.0 | 0.00 | 0.00 | 0.00 | 72 | 1005.1 |
| 20260505065223 | 20 | 176 | 0.0 | 0.0 | 0.00 | 0.00 | 0.00 | 73 | 1005.3 |
| 20260505064720 | 20 | 177 | 0.0 | 0.0 | 0.00 | 0.00 | 0.00 | 71 | 1005.5 |
| 20260505064218 | 20 | 178 | 0.0 | 0.0 | 0.00 | 0.00 | 0.00 | 70 | 1005.6 |
| 20260505063715 | 20 | 189 | 0.0 | 0.0 | 0.00 | 0.00 | 0.00 | 70 | 1005.6 |
| 20260505063211 | 20 | 231 | 0.0 | 0.0 | 0.00 | 0.00 | 0.00 | 69 | 1005.7 |
| 20260505062707 | 20 | 127 | 1.6 | 1.6 | 0.00 | 0.00 | 0.00 | 70 | 1005.9 |
| 20260505062205 | 20 | 203 | 0.0 | 0.0 | 0.00 | 0.00 | 0.00 | 67 | 1005.8 |
| 20260505061702 | 20 | 184 | 6.4 | 8.0 | 0.00 | 0.00 | 0.00 | 67 | 1005.8 |
| 20260505061200 | 20 | 141 | 3.2 | 4.8 | 0.00 | 0.00 | 0.00 | 68 | 1005.7 |
| 20260505060657 | 20 | 31 | 3.2 | 3.2 | 0.00 | 0.00 | 0.00 | 70 | 1005.3 |
| 20260505060154 | 20 | 113 | 1.6 | 1.6 | 0.00 | 0.00 | 0.00 | 70 | 1005.5 |
| 20260505055649 | 20 | 210 | 1.6 | 1.6 | 0.00 | 0.00 | 0.00 | 68 | 1005.1 |
| 20260505055146 | 20 | 214 | 1.6 | 3.2 | 0.00 | 0.00 | 0.00 | 68 | 1004.9 |
| 20260505054643 | 20 | 201 | 1.6 | 3.2 | 0.00 | 0.00 | 0.00 | 70 | 1004.5 |
| 20260505054141 | 20 | 193 | 3.2 | 3.2 | 0.00 | 0.00 | 0.00 | 69 | 1004.3 |
| 20260505053639 | 20 | 169 | 1.6 | 1.6 | 0.00 | 0.00 | 0.00 | 69 | 1004.2 |
| 20260505053135 | 20 | 214 | 3.2 | 3.2 | 0.00 | 0.00 | 0.00 | 67 | 1004.2 |
| 20260505052632 | 20 | 214 | 3.2 | 3.2 | 0.00 | 0.00 | 0.00 | 67 | 1004.0 |
| 20260505052129 | 20 | 179 | 1.6 | 3.2 | 0.00 | 0.00 | 0.00 | 69 | 1004.2 |
| 20260505051626 | 20 | 186 | 1.6 | 3.2 | 0.00 | 0.00 | 0.00 | 67 | 1004.4 |
| 20260505051124 | 21 | 195 | 0.0 | 0.0 | 0.00 | 0.00 | 0.00 | 69 | 1004.5 |
| 20260505050622 | 21 | 198 | 3.2 | 3.2 | 0.00 | 0.00 | 0.00 | 67 | 1004.6 |
| 20260505050120 | 21 | 184 | 1.6 | 3.2 | 0.00 | 0.00 | 0.00 | 68 | 1004.6 |
| 20260505041549 | 21 | 226 | 1.6 | 1.6 | 0.00 | 0.00 | 0.00 | 62 | 1005.6 |
| 20260505041047 | 21 | 191 | 4.8 | 4.8 | 0.00 | 0.00 | 0.00 | 62 | 1005.3 |
| 20260505040544 | 22 | 204 | 3.2 | 3.2 | 0.00 | 0.00 | 0.00 | 64 | 1005.6 |
| 20260505040041 | 21 | 184 | 6.4 | 9.7 | 0.00 | 0.00 | 0.00 | 62 | 1005.5 |
| 20260505035537 | 21 | 197 | 3.2 | 4.8 | 0.00 | 0.00 | 0.00 | 63 | 1005.6 |
| 20260505035034 | 22 | 188 | 4.8 | 4.8 | 0.00 | 0.00 | 0.00 | 63 | 1005.7 |
| 20260505034530 | 22 | 217 | 1.6 | 1.6 | 0.00 | 0.00 | 0.00 | 63 | 1005.7 |
| 20260505034027 | 22 | 202 | 0.0 | 0.0 | 0.00 | 0.00 | 0.00 | 62 | 1005.8 |
| 20260505033524 | 22 | 194 | 0.0 | 0.0 | 0.00 | 0.00 | 0.00 | 62 | 1005.9 |
| 20260505033023 | 22 | 194 | 0.0 | 0.0 | 0.00 | 0.00 | 0.00 | 63 | 1005.9 |
| 20260505032520 | 22 | 188 | 1.6 | 1.6 | 0.00 | 0.00 | 0.00 | 63 | 1005.7 |
| 20260505032016 | 22 | 200 | 1.6 | 1.6 | 0.00 | 0.00 | 0.00 | 61 | 1005.8 |
| 20260505031514 | 22 | 214 | 3.2 | 3.2 | 0.00 | 0.00 | 0.00 | 59 | 1005.6 |
| 20260505031010 | 22 | 181 | 3.2 | 3.2 | 0.00 | 0.00 | 0.00 | 59 | 1005.7 |
| 20260505030507 | 22 | 204 | 6.4 | 9.7 | 0.00 | 0.00 | 0.00 | 59 | 1005.2 |
| 20260505030003 | 22 | 183 | 4.8 | 4.8 | 0.00 | 0.00 | 0.00 | 59 | 1005.2 |
| 20260505025459 | 22 | 206 | 4.8 | 4.8 | 0.00 | 0.00 | 0.00 | 61 | 1005.3 |
| 20260505024958 | 22 | 203 | 0.0 | 0.0 | 0.00 | 0.00 | 0.00 | 59 | 1005.1 |
| 20260505024454 | 23 | 218 | 1.6 | 3.2 | 0.00 | 0.00 | 0.00 | 59 | 1005.2 |
| 20260505023952 | 23 | 221 | 3.2 | 3.2 | 0.00 | 0.00 | 0.00 | 57 | 1005.0 |
| 20260505023448 | 23 | 208 | 1.6 | 3.2 | 0.00 | 0.00 | 0.00 | 57 | 1004.9 |
| 20260505022946 | 23 | 177 | 4.8 | 8.0 | 0.00 | 0.00 | 0.00 | 59 | 1005.0 |
| 20260505022444 | 23 | 222 | 6.4 | 8.0 | 0.00 | 0.00 | 0.00 | 58 | 1004.8 |
| 20260505021941 | 23 | 200 | 3.2 | 3.2 | 0.00 | 0.00 | 0.00 | 59 | 1004.7 |
| 20260505021437 | 23 | 205 | 0.0 | 0.0 | 0.00 | 0.00 | 0.00 | 63 | 1004.9 |
| 20260505020933 | 23 | 197 | 0.0 | 0.0 | 0.00 | 0.00 | 0.00 | 61 | 1004.7 |
| 20260505020428 | 23 | 197 | 6.4 | 8.0 | 0.00 | 0.00 | 0.00 | 57 | 1004.6 |
| 20260505015925 | 23 | 201 | 0.0 | 0.0 | 0.00 | 0.00 | 0.00 | 59 | 1004.4 |
| 20260505015422 | 23 | 211 | 1.6 | 3.2 | 0.00 | 0.00 | 0.00 | 61 | 1004.4 |
| 20260505014920 | 23 | 200 | 0.0 | 0.0 | 0.00 | 0.00 | 0.00 | 62 | 1004.0 |
| 20260505014416 | 23 | 200 | 4.8 | 4.8 | 0.00 | 0.00 | 0.00 | 59 | 1004.2 |
| 20260505013913 | 23 | 175 | 4.8 | 4.8 | 0.00 | 0.00 | 0.00 | 61 | 1003.9 |
| 20260505013410 | 22 | 208 | 1.6 | 1.6 | 0.00 | 0.00 | 0.00 | 65 | 1004.0 |
| 20260505012908 | 22 | 199 | 0.0 | 0.0 | 0.00 | 0.00 | 0.00 | 65 | 1004.0 |
| 20260505012406 | 23 | 186 | 0.0 | 0.0 | 0.00 | 0.00 | 0.00 | 62 | 1003.9 |
| 20260505011902 | 23 | 186 | 0.0 | 0.0 | 0.00 | 0.00 | 0.00 | 63 | 1004.1 |
| 20260505011359 | 23 | 185 | 0.0 | 0.0 | 0.00 | 0.00 | 0.00 | 61 | 1003.9 |
| 20260505010855 | 23 | 171 | 0.0 | 0.0 | 0.00 | 0.00 | 0.00 | 61 | 1003.7 |
| 20260505010351 | 23 | 185 | 0.0 | 0.0 | 0.00 | 0.00 | 0.00 | 60 | 1003.9 |
| 20260505005847 | 23 | 193 | 1.6 | 1.6 | 0.00 | 0.00 | 0.00 | 59 | 1003.5 |
| 20260505005344 | 24 | 198 | 1.6 | 3.2 | 0.00 | 0.00 | 0.00 | 60 | 1003.6 |
| 20260505004842 | 24 | 204 | 4.8 | 4.8 | 0.00 | 0.00 | 0.00 | 55 | 1003.6 |
| 20260505004338 | 25 | 194 | 3.2 | 3.2 | 0.00 | 0.00 | 0.00 | 58 | 1003.4 |
| 20260505003835 | 24 | 210 | 4.8 | 4.8 | 0.00 | 0.00 | 0.00 | 56 | 1003.3 |
| 20260505003333 | 25 | 204 | 1.6 | 1.6 | 0.00 | 0.00 | 0.00 | 59 | 1003.4 |
| 20260505002828 | 25 | 212 | 0.0 | 0.0 | 0.00 | 0.00 | 0.00 | 56 | 1003.3 |
| 20260505002325 | 25 | 190 | 1.6 | 1.6 | 0.00 | 0.00 | 0.00 | 57 | 1003.4 |
| 20260505001824 | 25 | 211 | 4.8 | 4.8 | 0.00 | 0.00 | 0.00 | 55 | 1003.1 |
| 20260505001320 | 25 | 177 | 6.4 | 8.0 | 0.00 | 0.00 | 0.00 | 55 | 1003.3 |
| 20260505000818 | 25 | 190 | 4.8 | 4.8 | 0.00 | 0.00 | 0.00 | 57 | 1003.5 |
| 20260505000315 | 25 | 210 | 4.8 | 4.8 | 0.00 | 0.00 | 0.00 | 53 | 1003.6 |
| 20260504235812 | 25 | 211 | 8.0 | 9.7 | 0.00 | 0.00 | 0.00 | 52 | 1003.2 |
| 20260504235309 | 25 | 201 | 8.0 | 11.3 | 0.00 | 0.00 | 0.00 | 51 | 1003.3 |
| 20260504234806 | 25 | 187 | 6.4 | 8.0 | 0.00 | 0.00 | 0.00 | 51 | 1003.1 |
| 20260504234303 | 25 | 187 | 6.4 | 8.0 | 0.00 | 0.00 | 0.00 | 53 | 1003.1 |
| 20260504233759 | 25 | 179 | 9.7 | 11.3 | 0.00 | 0.00 | 0.00 | 51 | 1003.3 |
| 20260504233255 | 25 | 211 | 6.4 | 9.7 | 0.00 | 0.00 | 0.00 | 54 | 1003.2 |
| 20260504232752 | 25 | 210 | 4.8 | 4.8 | 0.00 | 0.00 | 0.00 | 52 | 1003.3 |
| 20260504232249 | 26 | 204 | 12.9 | 16.1 | 0.00 | 0.00 | 0.00 | 50 | 1003.4 |
| 20260504231746 | 26 | 194 | 14.5 | 14.5 | 0.00 | 0.00 | 0.00 | 50 | 1003.6 |
| 20260504231242 | 26 | 221 | 8.0 | 9.7 | 0.00 | 0.00 | 0.00 | 52 | 1003.3 |
| 20260504230738 | 26 | 180 | 9.7 | 12.9 | 0.00 | 0.00 | 0.00 | 50 | 1003.4 |
| 20260504230237 | 26 | 192 | 11.3 | 12.9 | 0.00 | 0.00 | 0.00 | 51 | 1003.5 |
| 20260504225736 | 26 | 211 | 11.3 | 12.9 | 0.00 | 0.00 | 0.00 | 50 | 1003.4 |
| 20260504225231 | 26 | 226 | 8.0 | 9.7 | 0.00 | 0.00 | 0.00 | 49 | 1003.5 |
| 20260504224729 | 26 | 221 | 9.7 | 11.3 | 0.00 | 0.00 | 0.00 | 49 | 1003.5 |
| 20260504224226 | 26 | 233 | 4.8 | 4.8 | 0.00 | 0.00 | 0.00 | 50 | 1003.3 |
| 20260504223722 | 27 | 248 | 8.0 | 9.7 | 0.00 | 0.00 | 0.00 | 49 | 1003.4 |
| 20260504223218 | 27 | 236 | 9.7 | 12.9 | 0.00 | 0.00 | 0.00 | 47 | 1003.4 |
| 20260504222715 | 27 | 211 | 8.0 | 9.7 | 0.00 | 0.00 | 0.00 | 48 | 1003.2 |
| 20260504222212 | 27 | 255 | 8.0 | 9.7 | 0.00 | 0.00 | 0.00 | 48 | 1003.4 |
| 20260504221709 | 27 | 205 | 11.3 | 16.1 | 0.00 | 0.00 | 0.00 | 47 | 1003.3 |
| 20260504221206 | 27 | 264 | 17.7 | 20.9 | 0.00 | 0.00 | 0.00 | 47 | 1003.4 |
| 20260504220702 | 27 | 216 | 17.7 | 22.5 | 0.00 | 0.00 | 0.00 | 46 | 1003.5 |
| 20260504220200 | 27 | 201 | 16.1 | 17.7 | 0.00 | 0.00 | 0.00 | 46 | 1003.2 |
| 20260504215656 | 27 | 195 | 14.5 | 17.7 | 0.00 | 0.00 | 0.00 | 45 | 1003.7 |
| 20260504215154 | 27 | 194 | 16.1 | 20.9 | 0.00 | 0.00 | 0.00 | 46 | 1003.6 |
| 20260504214649 | 27 | 201 | 11.3 | 14.5 | 0.00 | 0.00 | 0.00 | 46 | 1003.5 |
| 20260504214146 | 27 | 198 | 11.3 | 16.1 | 0.00 | 0.00 | 0.00 | 45 | 1003.6 |
| 20260504213642 | 27 | 243 | 20.9 | 24.1 | 0.00 | 0.00 | 0.00 | 47 | 1003.8 |
| 20260504213139 | 27 | 209 | 6.4 | 9.7 | 0.00 | 0.00 | 0.00 | 45 | 1003.6 |
| 20260504212636 | 27 | 193 | 14.5 | 17.7 | 0.00 | 0.00 | 0.00 | 46 | 1003.7 |
| 20260504212132 | 27 | 225 | 9.7 | 14.5 | 0.00 | 0.00 | 0.00 | 45 | 1003.6 |
| 20260504211630 | 27 | 225 | 11.3 | 14.5 | 0.00 | 0.00 | 0.00 | 45 | 1003.8 |
| 20260504211126 | 27 | 255 | 16.1 | 20.9 | 0.00 | 0.00 | 0.00 | 45 | 1003.8 |
| 20260504210624 | 27 | 196 | 12.9 | 17.7 | 0.00 | 0.00 | 0.00 | 46 | 1003.7 |
| 20260504210120 | 27 | 197 | 12.9 | 16.1 | 0.00 | 0.00 | 0.00 | 46 | 1003.8 |
| 20260504205618 | 27 | 203 | 14.5 | 17.7 | 0.00 | 0.00 | 0.00 | 46 | 1003.9 |
| 20260504205115 | 27 | 209 | 8.0 | 9.7 | 0.00 | 0.00 | 0.00 | 48 | 1003.8 |
| 20260504204614 | 27 | 184 | 11.3 | 12.9 | 0.00 | 0.00 | 0.00 | 46 | 1003.7 |
| 20260504204112 | 27 | 230 | 12.9 | 12.9 | 0.00 | 0.00 | 0.00 | 46 | 1003.9 |
| 20260504203611 | 27 | 236 | 9.7 | 9.7 | 0.00 | 0.00 | 0.00 | 48 | 1004.0 |
| 20260504203108 | 27 | 219 | 9.7 | 11.3 | 0.00 | 0.00 | 0.00 | 50 | 1003.7 |
| 20260504202603 | 27 | 216 | 8.0 | 11.3 | 0.00 | 0.00 | 0.00 | 47 | 1004.3 |
| 20260504202100 | 27 | 223 | 12.9 | 17.7 | 0.00 | 0.00 | 0.00 | 47 | 1004.2 |
| 20260504201557 | 27 | 213 | 20.9 | 24.1 | 0.00 | 0.00 | 0.00 | 46 | 1004.1 |
| 20260504201055 | 27 | 225 | 11.3 | 14.5 | 0.00 | 0.00 | 0.00 | 50 | 1004.1 |
| 20260504200550 | 27 | 189 | 6.4 | 8.0 | 0.00 | 0.00 | 0.00 | 47 | 1004.1 |
| 20260504200048 | 27 | 233 | 6.4 | 9.7 | 0.00 | 0.00 | 0.00 | 48 | 1004.3 |
| 20260504195544 | 27 | 201 | 11.3 | 14.5 | 0.00 | 0.00 | 0.00 | 45 | 1004.2 |
| 20260504195040 | 27 | 247 | 11.3 | 14.5 | 0.00 | 0.00 | 0.00 | 49 | 1004.6 |
| 20260504194537 | 27 | 195 | 9.7 | 11.3 | 0.00 | 0.00 | 0.00 | 51 | 1004.6 |
| 20260504194032 | 27 | 214 | 6.4 | 9.7 | 0.00 | 0.00 | 0.00 | 48 | 1004.6 |
| 20260504193529 | 27 | 225 | 11.3 | 12.9 | 0.00 | 0.00 | 0.00 | 50 | 1004.5 |
| 20260504193028 | 27 | 202 | 9.7 | 11.3 | 0.00 | 0.00 | 0.00 | 51 | 1004.7 |
| 20260504192526 | 26 | 208 | 14.5 | 17.7 | 0.00 | 0.00 | 0.00 | 49 | 1004.6 |
| 20260504192024 | 26 | 224 | 11.3 | 16.1 | 0.00 | 0.00 | 0.00 | 51 | 1004.7 |
| 20260504191521 | 26 | 207 | 8.0 | 9.7 | 0.00 | 0.00 | 0.00 | 50 | 1004.7 |
| 20260504191017 | 26 | 212 | 12.9 | 20.9 | 0.00 | 0.00 | 0.00 | 48 | 1004.8 |
| 20260504190514 | 26 | 224 | 9.7 | 12.9 | 0.00 | 0.00 | 0.00 | 50 | 1004.8 |
| 20260504190010 | 26 | 262 | 8.0 | 12.9 | 0.00 | 0.00 | 0.00 | 50 | 1004.9 |
| 20260504185507 | 26 | 256 | 16.1 | 20.9 | 0.00 | 0.00 | 0.00 | 50 | 1004.7 |
| 20260504185004 | 26 | 244 | 8.0 | 9.7 | 0.00 | 0.00 | 0.00 | 54 | 1004.8 |
| 20260504184459 | 26 | 216 | 8.0 | 9.7 | 0.00 | 0.00 | 0.00 | 49 | 1005.0 |
| 20260504183955 | 26 | 235 | 8.0 | 9.7 | 0.00 | 0.00 | 0.00 | 54 | 1005.0 |
| 20260504183452 | 25 | 213 | 6.4 | 8.0 | 0.00 | 0.00 | 0.00 | 54 | 1004.8 |
| 20260504182950 | 25 | 271 | 8.0 | 9.7 | 0.00 | 0.00 | 0.00 | 53 | 1005.2 |
| 20260504182446 | 25 | 228 | 8.0 | 9.7 | 0.00 | 0.00 | 0.00 | 52 | 1005.0 |
| 20260504181944 | 25 | 179 | 8.0 | 11.3 | 0.00 | 0.00 | 0.00 | 51 | 1004.7 |
| 20260504181441 | 25 | 205 | 8.0 | 9.7 | 0.00 | 0.00 | 0.00 | 51 | 1004.9 |
| 20260504180939 | 25 | 245 | 6.4 | 8.0 | 0.00 | 0.00 | 0.00 | 55 | 1005.2 |
| 20260504180438 | 25 | 241 | 6.4 | 8.0 | 0.00 | 0.00 | 0.00 | 52 | 1005.2 |
| 20260504175936 | 24 | 245 | 6.4 | 8.0 | 0.00 | 0.00 | 0.00 | 53 | 1004.8 |
| 20260504175432 | 24 | 245 | 8.0 | 11.3 | 0.00 | 0.00 | 0.00 | 53 | 1005.0 |
| 20260504174930 | 24 | 188 | 4.8 | 8.0 | 0.00 | 0.00 | 0.00 | 52 | 1005.2 |
| 20260504174427 | 24 | 183 | 9.7 | 9.7 | 0.00 | 0.00 | 0.00 | 51 | 1005.0 |
| 20260504173925 | 24 | 224 | 9.7 | 11.3 | 0.00 | 0.00 | 0.00 | 52 | 1004.9 |
| 20260504173421 | 23 | 191 | 11.3 | 12.9 | 0.00 | 0.00 | 0.00 | 51 | 1005.1 |
| 20260504172919 | 23 | 199 | 11.3 | 12.9 | 0.00 | 0.00 | 0.00 | 51 | 1004.8 |
| 20260504172415 | 23 | 212 | 4.8 | 4.8 | 0.00 | 0.00 | 0.00 | 52 | 1005.0 |
| 20260504171911 | 23 | 204 | 4.8 | 4.8 | 0.00 | 0.00 | 0.00 | 51 | 1005.5 |
| 20260504171408 | 23 | 215 | 8.0 | 8.0 | 0.00 | 0.00 | 0.00 | 53 | 1005.7 |
| 20260504170905 | 23 | 252 | 8.0 | 9.7 | 0.00 | 0.00 | 0.00 | 52 | 1005.8 |
| 20260504170402 | 23 | 218 | 6.4 | 8.0 | 0.00 | 0.00 | 0.00 | 54 | 1005.9 |
| 20260504160320 | 24 | 243 | 6.4 | 9.7 | 0.00 | 0.00 | 0.00 | 53 | 1006.1 |
| 20260504150745 | 23 | 199 | 9.7 | 12.9 | 0.00 | 0.00 | 0.00 | 49 | 1005.9 |
| 20260504150242 | 22 | 241 | 12.9 | 12.9 | 0.00 | 0.00 | 0.00 | 52 | 1006.3 |
| 20260504141212 | 21 | 209 | 12.9 | 14.5 | 0.00 | 0.00 | 0.00 | 51 | 1006.7 |
| 20260504140708 | 21 | 206 | 12.9 | 14.5 | 0.00 | 0.00 | 0.00 | 52 | 1006.8 |
| 20260504140204 | 21 | 203 | 6.4 | 11.3 | 0.00 | 0.00 | 0.00 | 54 | 1006.9 |
| 20260504130632 | 18 | 190 | 3.2 | 4.8 | 0.00 | 0.00 | 0.00 | 58 | 1007.2 |
| 20260504130129 | 18 | 193 | 6.4 | 8.0 | 0.00 | 0.00 | 0.00 | 58 | 1007.3 |
| 20260504110520 | 17 | 181 | 4.8 | 4.8 | 0.00 | 0.00 | 0.00 | 60 | 1007.5 |